Temperature
30 32 32 32 32 33 32 32 31 31 30 30 29 29 28 27 27 26 25 25 24 23 23 23 22 22 21 21 20 20 19 19 19 18 18 18 18 18 18 17 17 17 17 16
30 31 31 31 32 32 32 32 32 31 30 30 30 29 28 27 27 26 25 24 23 23 22 22 22 21 21 20 20 20 19 19 18 18 18 18 18 17 17 17 17 17 16 16
29 30 30 30 31 32 32 32 32 31 30 30 29 28 28 27 26 25 25 24 23 22 22 22 21 21 20 20 20 19 19 19 18 18 18 17 17 17 17 17 17 16 16 16
28 29 28 30 32 32 32 31 31 30 30 29 28 27 26 26 25 24 24 23 22 22 22 21 21 21 20 20 19 19 18 18 18 18 17 17 17 17 17 16 16 16 16 15
28 28 28 30 31 31 30 29 30 30 29 29 27 27 26 25 24 23 23 22 21 21 21 21 21 20 20 19 19 18 18 18 18 18 17 17 17 17 17 16 16 16 15 15
27 27 27 28 30 30 30 28 29 29 28 28 27 27 25 24 24 23 22 22 21 21 21 20 20 20 19 19 19 18 18 18 18 17 17 17 17 17 16 16 16 15 15 15
27 26 27 28 29 29 27 26 27 27 27 26 25 25 24 23 23 22 22 21 21 20 20 19 19 19 19 19 18 18 18 18 18 17 17 17 17 16 16 16 16 15 15 15
26 26 25 27 27 26 25 26 26 26 25 24 23 23 23 22 22 21 21 21 20 20 19 19 19 18 18 18 18 17 17 17 17 17 17 17 16 16 16 15 15 15 15 15
26 25 25 25 25 25 25 25 25 25 24 23 23 22 22 21 21 21 20 20 20 19 19 19 18 18 18 17 17 17 17 17 17 17 17 17 16 16 16 15 15 15 15 14
24 24 25 25 24 24 24 24 24 24 23 23 22 22 21 21 21 20 20 19 19 19 19 18 18 18 17 17 17 16 16 16 16 16 17 16 16 16 15 15 15 14 14 14
24 24 24 24 24 23 23 23 23 23 23 22 22 21 21 20 20 19 19 19 19 18 18 18 18 17 17 17 16 16 16 16 16 16 16 16 16 15 15 15 15 15 15 14
23 23 23 23 22 22 22 22 22 22 22 22 21 21 20 19 19 19 18 18 18 18 18 18 17 17 17 16 16 16 16 16 16 16 16 16 15 15 15 15 15 15 15 14
22 22 22 22 21 21 21 21 21 21 21 21 20 20 20 19 18 18 18 18 18 18 18 17 17 17 16 16 16 16 15 15 15 16 16 15 15 15 15 15 14 14 14 14
20 20 21 21 20 20 20 20 20 20 20 20 19 19 19 18 18 18 18 17 17 17 17 17 17 16 16 16 16 15 15 15 15 15 15 15 15 15 15 14 14 14 14 14
19 20 20 20 19 19 19 19 19 19 19 19 19 18 18 18 17 17 17 17 17 17 17 17 16 16 16 15 15 15 15 15 15 15 15 15 14 14 14 14 14 14 14 13
19 19 19 19 19 19 19 19 19 18 18 18 18 18 17 17 17 17 17 17 17 16 16 16 16 16 15 15 15 15 15 15 15 15 14 14 14 14 14 14 14 14 14 13
18 18 18 18 18 18 18 18 18 17 17 17 17 17 17 17 17 16 16 16 16 16 16 16 15 15 15 15 15 14 14 14 14 14 14 14 14 14 14 14 13 13 13 13
17 17 17 17 17 17 17 17 17 17 17 17 16 16 16 16 16 16 16 16 15 15 15 15 15 15 15 14 14 14 14 14 14 14 14 14 14 13 13 13 13 13 13 13
17 16 16 16 16 16 16 16 16 16 16 16 16 16 16 15 15 15 15 15 15 15 15 15 14 14 14 14 14 14 14 14 14 14 14 14 13 13 13 13 13 13 13 13
16 16 16 16 16 15 15 15 15 15 15 15 15 15 15 15 15 15 15 15 15 15 14 14 14 14 14 14 14 14 14 14 14 14 13 13 13 13 13 13 13 13 12 12
16 15 15 15 15 15 15 15 15 15 15 15 15 15 15 14 14 14 14 14 14 14 14 14 14 14 13 13 14 14 14 14 14 14 13 13 13 13 13 12 12 12 12 12
15 15 15 15 15 14 14 14 14 14 14 14 14 14 14 14 14 14 14 14 14 14 14 13 13 13 13 13 13 13 13 13 13 13 13 13 13 12 12 12 12 12 11 11
14 14 14 14 14 14 14 14 14 14 14 14 14 14 14 14 14 14 14 14 14 13 13 13 13 13 13 13 13 13 13 13 13 13 13 13 12 12 12 12 11 11 11 11
14 14 14 14 14 14 14 14 14 14 14 14 14 14 14 14 14 14 14 13 13 13 13 13 13 13 13 13 13 13 13 13 13 13 12 12 12 12 12 12 11 11 11 11
13 13 13 13 13 14 13 14 14 14 14 14 14 14 14 14 14 14 13 13 13 13 13 13 13 13 13 13 13 13 13 13 12 12 12 12 12 12 12 11 11 11 11 10
13 13 13 13 13 13 14 14 14 14 14 13 13 14 13 13 13 13 13 13 13 13 13 12 12 12 12 12 12 12 12 12 12 12 12 12 12 11 11 11 11 11 10 10
13 13 13 13 14 14 14 14 13 13 13 13 13 13 13 13 13 13 12 12 12 12 12 12 12 12 12 12 12 12 12 12 12 11 11 11 11 11 11 10 10 10 10 10
Wind_Speed
14 15 12 12 13 14 14 13 10 7 6 8 9 8 7 8 9 10 8 7 7 6 6 6 6 5 6 6 6 6 7 6 5 5 5 4 3 3 2 2 2 1 1 1
14 15 15 14 13 13 13 11 10 7 4 6 7 8 8 8 8 9 8 7 7 6 6 5 5 5 5 5 5 6 6 6 5 5 4 4 4 3 3 2 2 2 1 1
13 14 16 16 13 12 11 11 9 7 3 6 8 7 8 8 7 7 7 7 6 5 5 5 5 5 4 4 5 5 5 5 6 5 4 4 4 3 3 3 2 2 2 1
12 12 17 11 9 8 7 4 3 2 4 4 7 6 7 7 7 6 6 6 5 4 4 4 5 5 5 5 5 5 5 5 5 5 5 4 4 4 3 3 2 2 2 2
11 14 14 9 7 8 5 3 2 2 3 5 6 7 6 7 7 6 6 6 4 3 3 3 3 4 4 5 4 4 5 5 5 5 5 4 4 4 3 3 3 3 3 3
11 13 12 6 6 6 5 4 1 0 1 3 5 5 4 5 5 7 7 5 4 4 4 3 3 3 3 4 4 4 3 4 4 4 4 5 5 4 4 3 4 3 3 3
14 13 7 4 5 5 6 1 2 2 3 4 2 3 7 5 5 7 6 6 5 4 4 3 3 3 3 2 3 3 3 3 3 4 4 5 4 4 4 4 4 4 4 3
12 12 6 5 3 1 2 5 3 3 4 6 6 7 8 6 6 6 5 5 5 4 4 3 3 3 2 2 1 1 2 2 2 3 3 3 3 3 3 4 5 4 3 3
3 2 3 6 5 4 4 3 3 3 5 7 5 4 5 5 5 4 4 3 3 3 3 3 3 3 2 1 1 1 1 2 2 2 2 3 3 4 4 4 4 4 4 5
2 3 3 3 4 4 4 3 2 3 4 5 5 4 4 3 3 3 3 2 2 3 2 2 2 2 2 2 2 2 2 2 2 2 3 3 3 4 4 4 4 4 4 4
1 2 1 1 3 3 3 3 2 2 2 3 4 4 3 3 2 2 1 1 1 2 2 2 2 2 2 2 2 2 2 2 3 4 3 2 2 2 3 2 3 3 3 3
2 0 0 1 3 3 3 3 3 2 1 1 2 3 3 3 2 1 0 0 1 1 1 2 2 2 2 3 3 3 3 4 4 4 3 3 4 3 1 2 1 2 3 3
2 1 1 1 2 3 3 3 3 2 1 1 1 1 1 2 2 2 1 1 1 1 1 1 2 2 2 3 3 4 4 5 5 4 4 4 5 5 3 1 1 1 3 4
4 2 1 1 2 2 2 3 3 2 0 0 0 0 0 1 1 2 2 1 2 2 2 2 3 3 2 3 4 5 6 6 5 5 4 5 5 4 4 4 4 3 3 4
2 2 1 1 1 1 1 1 2 2 2 1 0 0 1 1 2 2 2 2 2 3 3 3 2 2 2 3 4 5 5 4 3 4 3 3 3 3 4 4 3 3 2 2
2 2 2 2 2 2 2 2 2 1 1 1 1 1 1 2 2 2 2 2 3 4 2 2 2 2 3 3 3 4 4 4 4 4 4 3 3 3 3 3 3 3 3 3
3 2 2 2 2 2 2 2 2 2 2 2 2 2 2 3 3 3 4 4 3 3 2 2 3 2 3 3 4 5 5 4 5 5 3 3 3 4 4 3 3 3 2 3
2 2 2 2 3 3 3 3 3 3 3 3 3 3 3 3 4 4 4 4 3 2 3 3 2 2 3 3 3 4 4 4 4 4 3 3 3 4 4 4 3 3 3 2
1 2 1 2 2 2 3 3 3 3 3 4 4 4 4 4 4 4 4 4 3 3 3 2 2 3 3 2 3 4 5 5 4 3 3 3 4 4 4 4 4 4 3 2
1 2 2 3 2 3 3 3 3 3 3 4 4 4 4 4 4 4 3 3 2 3 2 2 3 3 3 2 3 5 5 4 4 3 3 3 4 3 3 4 4 4 3 2
1 1 2 2 1 2 2 2 2 3 4 4 4 4 4 4 4 3 3 3 1 1 2 2 2 2 2 2 4 5 4 3 3 3 3 3 3 3 3 3 3 3 2 2
1 1 1 2 2 2 1 1 2 3 4 4 4 4 4 4 4 3 2 2 1 0 1 2 1 0 1 2 4 4 3 2 2 1 2 2 2 2 2 2 3 2 2 3
1 1 1 1 1 1 1 1 2 3 4 3 4 3 3 3 3 3 2 1 1 1 2 1 0 1 2 4 4 3 2 2 2 2 2 2 2 2 2 2 2 3 2 2
0 0 1 0 1 1 1 2 3 3 3 3 2 2 2 3 2 1 0 1 1 2 0 1 2 1 3 3 3 3 2 2 2 2 2 2 2 2 2 2 3 3 2 3
1 0 0 0 0 1 1 1 2 2 2 2 2 2 1 1 1 1 1 1 2 2 1 2 2 2 2 3 3 3 2 2 2 3 3 3 3 3 2 3 3 3 3 3
1 0 0 1 1 1 1 1 1 1 1 1 2 2 2 2 2 1 1 1 2 1 1 1 1 1 1 2 3 3 3 2 2 2 2 3 3 2 2 3 3 3 3 3
1 1 1 0 1 1 1 1 1 2 2 2 3 3 3 3 2 2 1 1 2 1 1 1 1 1 2 2 3 3 3 2 2 2 3 2 3 3 3 3 3 3 3 3
Wind_Direction
255 265 255 239 241 242 246 254 252 234 205 178 157 143 140 138 130 124 124 122 120 122 123 124 129 138 144 152 152 154 159 164 161 158 152 153 157 161 160 171 175 150 179 221
250 254 257 252 245 239 241 244 236 231 223 162 137 140 142 138 133 129 130 129 127 127 132 136 137 141 141 144 154 151 155 156 155 157 160 164 165 170 172 177 180 180 203 215
251 251 258 250 245 239 238 244 244 238 210 160 148 144 142 136 129 131 130 121 120 126 132 137 140 136 139 139 145 152 157 160 161 161 168 180 186 178 182 191 192 198 216 203
251 251 250 252 255 246 237 249 272 162 155 145 129 136 126 121 126 128 123 120 118 127 121 136 149 149 148 153 156 165 168 168 167 167 172 181 190 196 198 198 207 215 221 220
246 243 246 249 246 256 245 242 297 263 168 155 148 144 129 126 130 134 126 123 126 131 124 106 128 141 152 162 161 171 177 176 179 180 184 188 200 203 200 202 211 219 219 218
244 248 247 251 271 277 252 232 327 359 101 150 163 183 133 109 116 119 116 116 114 119 105 92 97 123 143 170 169 175 177 179 181 181 199 204 202 201 203 207 215 227 225 213
242 249 251 294 304 279 249 234 56 54 72 90 91 77 104 108 103 103 109 111 111 108 104 98 98 113 142 158 167 167 159 168 180 187 202 210 200 199 201 208 215 226 224 214
239 245 243 348 340 337 67 54 61 72 80 81 83 92 103 108 99 101 110 116 115 105 107 108 117 127 142 154 145 148 171 187 191 189 207 199 192 209 214 222 224 221 221 227
229 200 70 30 40 49 56 66 56 70 86 96 105 115 112 116 120 117 113 111 115 115 115 114 123 138 161 140 131 154 174 202 195 199 206 190 192 203 211 221 227 225 223 230
127 124 96 49 36 29 31 28 74 98 100 110 123 117 104 101 111 119 116 131 128 122 125 122 133 150 147 136 152 180 189 213 208 206 218 200 203 212 220 222 229 231 229 234
158 135 114 30 23 24 28 13 27 93 126 136 135 134 120 100 76 81 116 130 125 127 149 160 166 164 153 145 156 203 212 209 222 227 222 212 222 245 241 239 229 228 240 239
239 58 318 17 20 18 12 358 346 349 24 110 142 134 123 109 92 81 325 176 168 162 168 162 174 180 172 176 186 208 228 229 234 231 221 212 212 232 309 257 210 194 195 193
10 18 26 33 17 8 2 337 324 331 24 44 57 97 141 149 174 188 199 240 245 211 188 186 184 199 200 196 200 217 235 238 242 239 232 222 221 220 222 239 280 253 221 198
25 32 19 357 333 331 341 323 316 309 346 70 35 326 248 204 223 223 214 232 258 251 241 229 216 215 208 208 216 230 243 242 239 237 233 229 222 223 221 220 222 234 241 209
352 323 280 288 317 325 335 295 289 312 345 4 9 267 281 281 275 278 279 261 257 249 235 235 234 227 220 228 233 241 248 247 244 252 242 236 231 229 232 231 231 217 194 188
297 293 254 256 264 267 258 266 278 294 315 315 309 334 315 293 296 295 287 264 256 259 241 235 242 234 229 232 237 248 242 239 234 246 250 239 240 241 236 234 239 232 213 193
269 266 263 261 261 272 286 297 296 284 283 275 282 294 286 280 287 294 289 277 267 253 234 230 243 244 236 232 243 253 251 234 222 236 240 232 237 245 248 249 253 256 238 190
286 301 311 295 283 287 286 282 277 279 281 281 282 277 272 277 277 281 287 289 284 266 256 252 246 240 233 237 254 266 262 249 230 232 229 224 237 242 241 241 247 255 256 209
247 268 282 300 297 296 300 304 298 292 290 290 283 278 277 274 275 277 280 278 278 275 272 265 232 241 244 226 255 260 258 254 242 236 233 223 236 245 246 245 245 247 243 214
234 239 251 253 245 267 275 282 292 286 286 293 292 292 290 288 288 284 281 268 262 281 273 259 236 238 247 238 252 256 255 255 246 234 235 238 244 250 252 260 262 257 249 236
230 251 246 238 248 262 268 277 288 289 288 288 286 285 284 284 285 290 283 276 292 331 294 239 217 230 245 272 263 263 259 254 246 237 238 244 250 258 261 268 275 275 261 251
18 334 298 286 272 265 268 271 288 293 293 291 286 282 281 278 274 270 268 272 265 211 245 251 234 253 295 282 258 265 279 282 269 264 257 257 254 259 269 273 276 268 253 245
20 326 296 283 283 280 281 286 290 293 294 294 293 292 288 281 278 274 272 249 234 225 254 286 341 62 317 275 265 261 270 285 291 282 274 275 271 264 268 272 269 270 263 261
125 245 279 304 308 291 300 300 298 294 283 283 279 275 275 277 275 278 273 123 142 162 269 109 140 197 263 267 281 291 293 297 307 294 278 276 273 266 268 276 279 281 275 273
88 61 76 90 300 306 278 257 279 306 312 314 315 310 280 271 275 311 33 100 145 159 151 135 176 227 262 301 315 323 326 331 313 297 287 284 285 288 284 280 285 290 286 281
151 222 45 356 357 332 310 307 314 353 4 347 344 350 5 34 63 62 50 65 84 95 25 66 139 228 291 315 321 327 325 316 306 308 320 315 309 310 312 310 310 306 304 308
140 135 134 150 64 15 1 17 47 46 30 29 26 23 26 35 44 40 31 24 47 51 12 357 352 332 312 311 321 333 327 306 300 312 309 313 319 325 324 324 319 317 318 323
Height
1445 1439 1437 1440 1441 1440 1443 1445 1455 1456 1457 1457 1459 1462 1467 1469 1472 1475 1478 1481 1485 1487 1491 1493 1496 1499 1501 1504 1506 1507 1509 1510 1511 1512 1513 1514 1515 1515 1516 1516 1517 1517 1517 1517
1449 1440 1439 1440 1438 1438 1440 1441 1445 1450 1455 1452 1457 1462 1466 1469 1472 1476 1479 1482 1485 1488 1490 1492 1495 1497 1500 1502 1504 1505 1506 1508 1509 1510 1511 1512 1513 1514 1514 1515 1515 1515 1515 1515
1454 1444 1444 1448 1439 1438 1440 1437 1440 1449 1451 1451 1457 1462 1465 1468 1473 1476 1479 1482 1485 1487 1490 1492 1494 1496 1498 1500 1502 1503 1504 1506 1507 1508 1509 1510 1511 1512 1512 1513 1513 1513 1513 1513
1452 1453 1466 1445 1430 1431 1435 1439 1440 1444 1448 1452 1458 1463 1466 1469 1473 1476 1479 1482 1485 1487 1489 1492 1494 1496 1497 1499 1500 1502 1503 1504 1505 1506 1507 1508 1509 1509 1510 1510 1511 1511 1511 1511
1453 1459 1454 1441 1434 1435 1439 1445 1444 1446 1449 1453 1457 1462 1467 1470 1473 1476 1479 1482 1484 1487 1489 1491 1492 1494 1496 1497 1498 1500 1501 1501 1503 1504 1504 1506 1507 1507 1508 1508 1508 1508 1509 1509
1452 1460 1464 1450 1436 1436 1440 1452 1447 1449 1451 1454 1457 1463 1468 1471 1473 1476 1479 1481 1484 1486 1487 1489 1490 1492 1494 1495 1496 1497 1498 1499 1500 1501 1502 1503 1504 1505 1505 1505 1506 1506 1506 1506
1452 1456 1452 1442 1438 1439 1456 1459 1452 1453 1455 1457 1460 1464 1469 1472 1475 1477 1479 1481 1483 1485 1486 1487 1489 1490 1492 1493 1494 1495 1496 1497 1498 1498 1499 1500 1501 1502 1502 1503 1503 1503 1504 1503
1450 1457 1461 1446 1444 1449 1454 1452 1454 1456 1458 1459 1463 1467 1469 1472 1476 1478 1479 1481 1483 1484 1485 1486 1487 1489 1490 1491 1492 1493 1494 1495 1495 1496 1497 1497 1498 1498 1499 1500 1500 1500 1501 1501
1447 1454 1452 1451 1451 1453 1453 1455 1457 1458 1460 1462 1466 1469 1471 1473 1475 1478 1479 1481 1482 1483 1484 1485 1486 1487 1488 1489 1490 1491 1491 1492 1493 1493 1494 1495 1495 1496 1497 1497 1497 1497 1498 1498
1447 1450 1451 1453 1455 1456 1457 1457 1459 1460 1462 1464 1467 1470 1473 1475 1476 1477 1479 1480 1481 1482 1483 1484 1485 1486 1486 1487 1488 1488 1488 1489 1490 1490 1491 1492 1493 1494 1494 1494 1495 1495 1495 1495
1449 1450 1453 1455 1457 1458 1458 1460 1460 1462 1463 1466 1468 1470 1471 1473 1475 1477 1478 1479 1480 1481 1481 1482 1483 1484 1484 1485 1485 1485 1485 1486 1487 1487 1488 1489 1489 1490 1490 1490 1491 1491 1491 1491
1452 1453 1455 1457 1458 1459 1460 1461 1462 1463 1464 1465 1468 1469 1471 1472 1474 1476 1477 1478 1478 1479 1480 1480 1481 1482 1482 1482 1482 1482 1482 1483 1484 1484 1484 1485 1485 1486 1486 1487 1487 1487 1487 1487
1454 1454 1456 1458 1459 1460 1461 1463 1463 1463 1464 1466 1467 1469 1470 1472 1473 1474 1475 1476 1477 1477 1478 1478 1478 1479 1480 1480 1479 1479 1479 1480 1481 1481 1481 1481 1481 1482 1482 1483 1483 1482 1483 1482
1456 1456 1458 1459 1461 1461 1462 1463 1463 1464 1465 1466 1467 1469 1470 1471 1472 1473 1473 1474 1475 1475 1475 1476 1476 1477 1477 1477 1477 1476 1477 1477 1477 1477 1477 1478 1478 1478 1479 1479 1478 1478 1478 1477
1457 1458 1459 1460 1461 1462 1462 1463 1463 1464 1465 1466 1467 1468 1469 1470 1471 1471 1472 1472 1472 1472 1473 1473 1473 1473 1473 1473 1473 1473 1474 1474 1474 1474 1474 1475 1474 1475 1475 1475 1475 1475 1474 1473
1458 1458 1459 1460 1461 1461 1462 1463 1463 1464 1465 1466 1467 1468 1468 1469 1469 1469 1470 1470 1469 1469 1470 1470 1470 1470 1470 1470 1470 1470 1470 1470 1470 1471 1472 1472 1472 1472 1472 1472 1472 1472 1471 1470
1457 1458 1458 1459 1460 1461 1462 1463 1463 1464 1465 1466 1466 1467 1467 1468 1467 1467 1468 1467 1467 1467 1466 1466 1466 1467 1466 1466 1466 1467 1467 1467 1467 1468 1468 1468 1469 1469 1469 1469 1469 1469 1468 1467
1457 1458 1458 1459 1459 1460 1461 1462 1462 1463 1464 1464 1465 1465 1465 1465 1465 1465 1465 1464 1464 1463 1463 1463 1463 1463 1463 1463 1463 1463 1464 1464 1464 1464 1465 1465 1465 1466 1466 1466 1466 1466 1465 1465
1456 1456 1456 1457 1458 1459 1459 1460 1461 1461 1462 1462 1462 1462 1462 1462 1462 1462 1461 1461 1460 1460 1460 1460 1460 1460 1460 1460 1460 1460 1461 1461 1461 1461 1462 1462 1462 1463 1463 1463 1463 1463 1462 1462
1454 1455 1455 1456 1457 1457 1458 1458 1459 1459 1460 1460 1460 1460 1460 1460 1459 1459 1459 1458 1458 1458 1457 1457 1457 1457 1457 1457 1457 1458 1458 1458 1458 1458 1459 1459 1459 1459 1460 1460 1459 1459 1459 1459
1453 1453 1453 1454 1454 1455 1456 1457 1457 1457 1458 1458 1458 1457 1457 1457 1457 1456 1456 1455 1455 1455 1455 1455 1454 1454 1454 1454 1454 1455 1455 1455 1455 1456 1456 1456 1456 1456 1457 1457 1456 1456 1455 1455
1451 1451 1452 1452 1453 1454 1454 1455 1455 1456 1456 1456 1455 1455 1454 1454 1454 1454 1453 1453 1453 1453 1452 1453 1452 1452 1452 1452 1452 1453 1453 1453 1453 1453 1453 1453 1453 1453 1453 1453 1453 1452 1452 1452
1451 1451 1451 1451 1452 1452 1453 1454 1454 1454 1454 1454 1453 1452 1452 1452 1452 1452 1451 1451 1451 1450 1450 1450 1450 1449 1450 1450 1450 1451 1451 1451 1451 1451 1451 1450 1450 1450 1450 1450 1450 1449 1449 1448
1450 1450 1450 1451 1451 1452 1452 1453 1453 1452 1452 1451 1451 1450 1450 1450 1449 1450 1449 1449 1449 1449 1449 1448 1448 1448 1448 1449 1449 1449 1449 1449 1449 1449 1448 1448 1448 1448 1447 1447 1447 1446 1445 1445
1449 1450 1450 1450 1451 1451 1451 1451 1451 1451 1450 1449 1449 1449 1448 1448 1448 1448 1448 1447 1447 1447 1447 1447 1447 1447 1447 1447 1448 1448 1448 1447 1447 1447 1446 1446 1445 1445 1445 1445 1444 1443 1442 1442
1449 1450 1450 1450 1450 1450 1450 1450 1449 1449 1449 1448 1448 1448 1447 1447 1447 1447 1447 1447 1446 1446 1446 1446 1446 1446 1446 1446 1446 1446 1446 1446 1446 1445 1444 1444 1443 1442 1442 1441 1441 1440 1439 1438
1449 1450 1450 1450 1450 1450 1449 1449 1449 1448 1448 1448 1448 1448 1447 1447 1447 1447 1447 1447 1446 1446 1446 1446 1445 1445 1445 1445 1445 1445 1444 1444 1444 1443 1442 1442 1441 1440 1439 1438 1437 1437 1436 1435